Preview of NWS' New Version of Forecast
This preview is not operational and should not be used for support decisions.

Regional Weather Roundup (RWR)

Issued by National Weather Service (NWS)

                            
000
ASUS44 KJAN 222210
RWRMS 

MISSISSIPPI HOURLY WEATHER ROUNDUP
NATIONAL WEATHER SERVICE JACKSON MS
500 PM CDT SUN SEP 22 2019

NOTE: "FAIR: INDICATES FEW OR NO CLOUDS BELOW 12,000 FEET WITH NO
SIGNIFICANT WEATHER AND/OR OBSTRUCTIONS TO VISIBILITY.

MSZ001>002-007>008-010>013-018>021-025>028-034>036-222300-
NORTHWEST MISSISSIPPI
  
CITY           SKY/WX    TMP DP  RH WIND       PRES   REMARKS
BATESVILLE     MOCLDY    88  64  45 S8        30.03S                  
CLARKSDALE       N/A     90  64  43 S8        30.02S HX  91           
CLEVELAND      CLOUDY    88  65  46 S8        30.01S HX  90           
GREENWOOD      FAIR      89  64  43 SE7       30.03F HX  90           
GREENVILLE     FAIR      92  63  38 VRB7      30.00F HX  93           
OLIVE BRANCH   PTSUNNY   88  63  42 S9        30.04R                  
OXFORD         FAIR      86  61  42 VRB7      30.06S                  
TUNICA           N/A     88  63  42 S12       30.03S                  
WINONA         CLOUDY    85  63  47 S6        30.06R                  
$$

MSZ003>006-009-014>017-022>024-029>033-037>039-222300-
NORTHEAST MISSISSIPPI
  
CITY           SKY/WX    TMP DP  RH WIND       PRES   REMARKS
ABERDEEN       FAIR      88  70  55 S7        30.08R HX  92           
COLUMBUS AFB   FAIR      88  59  37 E7        30.06S                  
CORINTH        MOCLDY    88  59  37 VRB7      30.05S                  
GOLDN TRIANGLE FAIR      88  60  38 CALM      30.07S                  
STARKVILLE     FAIR      88  55  33 SE5       30.08S                  
TUPELO           N/A     88  59  37 SE9       30.06S                  
$$

MSZ040-058-222300-
CENTRAL MISSISSIPPI
  
CITY           SKY/WX    TMP DP  RH WIND       PRES   REMARKS
JACKSON INTL   FAIR      89  63  41 S7        30.05S HX  90           
JACKSON HAWKNS FAIR      88  64  44 SE9       30.05F                  
MADISON        FAIR      86  64  48 S5        30.06F                  
MERIDIAN KEY   FAIR      89  61  38 SW5       30.06S                  
MERIDIAN NAS   FAIR      89  56  32 S3        30.07S                  
RAYMOND          N/A     90  68  48 SE5       30.04S HX  93           
VICKSBURG VKS  MOCLDY    90  66  45 S7        30.03S HX  92           
$$

MSZ059>079-222300-
SOUTH MISSISSIPPI
  
CITY           SKY/WX    TMP DP  RH WIND       PRES   REMARKS
BROOKHAVEN     CLOUDY    86  68  54 CALM      30.07S                  
HATTIESBURG    FAIR      89  64  43 E5        30.05F HX  90           
LAUREL         CLOUDY    88  62  41 SE3       30.06S                  
MCCOMB         PTSUNNY   89  66  46 S9        30.05S HX  91           
NATCHEZ        FAIR      90  68  48 S10       30.04S HX  94           
PINE BELT      CLOUDY    86  67  52 E5        30.07S                  
$$

MSZ080>082-222300-
COASTAL MISSISSIPPI
  
CITY           SKY/WX    TMP DP  RH WIND       PRES   REMARKS
BAY ST LOUIS   MOSUNNY   86  70  58 SE14      30.06S HX  90           
BILOXI         FAIR      85  66  51 SE13      30.05F                  
PASCAGOULA     FAIR      86  66  51 S8        30.06S                  
GULFPORT       FAIR      86  64  47 SE15      30.05F                  
$$

LAZ007>009-015>016-023>026-222300-
NORTHEAST LOUISIANA
  
CITY           SKY/WX    TMP DP  RH WIND       PRES   REMARKS
BASTROP        FAIR      93  65  40 S7        30.01F HX  95           
TALLULAH/VBURG PTSUNNY   94  66  39 S6        30.02S HX  97           
VIDALIA        FAIR      91  67  44 S8        30.02S HX  94           
$$